Location: Chimay
(50.0486°N, 4.3171°E)
Time: 15:18:01
(UTC+00:00)

MTI - Pass Details

Date: 08 August 2020
Orbit: 394 x 402 km, 97.5° (Epoch: 19 September)

Event Time Altitude Azimuth Distance (km) Brightness Sun altitude
Rises 22:13:57 0° 12° (NNE) 2,324 8.4 -21.0°
Reaches altitude 10° 22:15:57 10° 11° (N) 1,461 7.3 -21.1°
Enters shadow 22:18:39 62° 349° (N) 457 4.1 -21.3°
